When you browse on this site, cookies collect data to enhance your experience and personalize the content and advertising you see.
Visit our Privacy Policy to learn more. By continuing to use the site, you agree to this use of cookies and data.
  • In Hungary
  • List of Countries
  • For 7 days
  • Water Temperature
  • Satellite Maps
  • Weather Map
  • News
  • Weather Widgets
  • user-avatar
    Login

    Hourly Weather Molodiya

    Today, 17 July, Wednesday

    Time Temperature Precipitation Wind Pressure Humidity
    00:00 +16°C° 0 mm 1 mps 741 mmHg 78%
    01:00 +16°C° 0 mm 2 mps 741 mmHg 77%
    02:00 +16°C° 0 mm 2 mps 741 mmHg 76%
    03:00 +16°C° 0 mm 2 mps 741 mmHg 81%
    04:00 +14°C° 0 mm 3 mps 741 mmHg 87%
    05:00 +13°C° 0 mm 3 mps 741 mmHg 92%
    06:00 +14°C° 0 mm 3 mps 741 mmHg 87%
    07:00 +16°C° 0 mm 3 mps 740 mmHg 82%
    08:00 +17°C° 0 mm 3 mps 740 mmHg 76%
    09:00 +18°C° 0 mm 3 mps 740 mmHg 72%
    10:00 +19°C° 0 mm 2 mps 740 mmHg 67%
    11:00 +20°C° 0 mm 2 mps 740 mmHg 63%
    12:00 +21°C° 0 mm 2 mps 740 mmHg 61%
    13:00 +23°C° 0 mm 2 mps 740 mmHg 59%
    14:00 +24°C° 0 mm 3 mps 740 mmHg 57%
    15:00 +24°C° 0.2 mm 3 mps 740 mmHg 58%
    16:00 +22°C° 0.2 mm 4 mps 740 mmHg 60%
    17:00 +22°C° 0.2 mm 4 mps 740 mmHg 61%
    18:00 +21°C° 0 mm 3 mps 740 mmHg 66%
    19:00 +19°C° 0 mm 2 mps 740 mmHg 71%
    20:00 +17°C° 0 mm 2 mps 740 mmHg 76%
    21:00 +16°C° 0 mm 2 mps 741 mmHg 79%
    22:00 +16°C° 0 mm 2 mps 741 mmHg 81%
    23:00 +15°C° 0 mm 2 mps 741 mmHg 84%

    Tomorrow, 18 July, Thursday

    Time Temperature Precipitation Wind Pressure Humidity
    00:00 +14°C° 0 mm 2 mps 741 mmHg 86%
    01:00 +13°C° 0 mm 2 mps 741 mmHg 87%
    02:00 +13°C° 0 mm 2 mps 741 mmHg 89%
    03:00 +13°C° 0 mm 2 mps 741 mmHg 89%
    04:00 +12°C° 0 mm 2 mps 742 mmHg 89%
    05:00 +12°C° 0 mm 2 mps 742 mmHg 88%
    06:00 +14°C° 0 mm 2 mps 742 mmHg 82%
    07:00 +16°C° 0 mm 3 mps 742 mmHg 75%
    08:00 +18°C° 0 mm 3 mps 742 mmHg 69%
    09:00 +19°C° 0 mm 4 mps 742 mmHg 64%
    10:00 +21°C° 0 mm 4 mps 742 mmHg 60%
    11:00 +22°C° 0 mm 4 mps 742 mmHg 55%
    12:00 +22°C° 0 mm 4 mps 742 mmHg 54%
    13:00 +23°C° 0 mm 4 mps 742 mmHg 52%
    14:00 +23°C° 0 mm 4 mps 742 mmHg 50%
    15:00 +24°C° 0 mm 3 mps 742 mmHg 51%
    16:00 +24°C° 0 mm 3 mps 742 mmHg 52%
    17:00 +25°C° 0 mm 3 mps 742 mmHg 54%
    18:00 +23°C° 0 mm 2 mps 742 mmHg 60%
    19:00 +21°C° 0 mm 1 mps 742 mmHg 66%
    20:00 +19°C° 0 mm 1 mps 743 mmHg 72%
    21:00 +19°C° 0 mm 1 mps 743 mmHg 73%
    22:00 +17°C° 0 mm 0 mps 743 mmHg 73%
    23:00 +16°C° 0 mm 0 mps 744 mmHg 73%

    Day after tomorrow, 19 July, Friday

    Time Temperature Precipitation Wind Pressure Humidity
    00:00 +16°C° 0 mm 0 mps 744 mmHg 75%
    01:00 +15°C° 0 mm 0 mps 744 mmHg 77%
    02:00 +15°C° 0 mm 0 mps 744 mmHg 79%
    03:00 +14°C° 0 mm 0 mps 744 mmHg 81%
    04:00 +14°C° 0 mm 0 mps 744 mmHg 83%
    05:00 +13°C° 0 mm 0 mps 744 mmHg 86%
    06:00 +15°C° 0 mm 0 mps 744 mmHg 80%
    07:00 +17°C° 0 mm 0 mps 744 mmHg 75%
    08:00 +19°C° 0 mm 0 mps 744 mmHg 69%
    09:00 +23°C° 0 mm 1 mps 744 mmHg 65%
    10:00 +24°C° 0 mm 2 mps 744 mmHg 61%
    11:00 +25°C° 0 mm 2 mps 744 mmHg 57%
    12:00 +26°C° 0 mm 2 mps 744 mmHg 54%
    13:00 +27°C° 0 mm 2 mps 744 mmHg 50%
    14:00 +27°C° 0 mm 2 mps 744 mmHg 47%
    15:00 +27°C° 0.1 mm 1 mps 744 mmHg 48%
    16:00 +27°C° 0.1 mm 1 mps 743 mmHg 49%
    17:00 +27°C° 0.1 mm 1 mps 743 mmHg 49%
    18:00 +26°C° 0 mm 1 mps 743 mmHg 56%
    19:00 +24°C° 0 mm 1 mps 744 mmHg 62%
    20:00 +22°C° 0 mm 1 mps 744 mmHg 69%
    21:00 +21°C° 0 mm 1 mps 744 mmHg 72%
    22:00 +20°C° 0 mm 1 mps 744 mmHg 76%
    23:00 +17°C° 0 mm 0 mps 744 mmHg 79%

    20 July, Saturday

    Time Temperature Precipitation Wind Pressure Humidity
    00:00 +16°C° 0 mm 0 mps 744 mmHg 81%
    01:00 +18°C° 0 mm 1 mps 744 mmHg 82%
    02:00 +16°C° 0 mm 1 mps 744 mmHg 84%
    03:00 +16°C° 0 mm 1 mps 744 mmHg 84%
    04:00 +16°C° 0 mm 1 mps 744 mmHg 84%
    05:00 +16°C° 0 mm 1 mps 744 mmHg 85%
    06:00 +19°C° 0 mm 1 mps 745 mmHg 80%
    07:00 +21°C° 0 mm 1 mps 745 mmHg 74%
    08:00 +20°C° 0 mm 0 mps 745 mmHg 69%
    09:00 +22°C° 0 mm 0 mps 745 mmHg 64%
    10:00 +24°C° 0 mm 0 mps 745 mmHg 59%
    11:00 +26°C° 0 mm 0 mps 745 mmHg 53%
    12:00 +29°C° 0 mm 1 mps 745 mmHg 50%
    13:00 +29°C° 0 mm 1 mps 745 mmHg 47%
    14:00 +30°C° 0 mm 1 mps 745 mmHg 43%
    15:00 +30°C° 0 mm 1 mps 745 mmHg 44%
    16:00 +29°C° 0 mm 1 mps 745 mmHg 45%
    17:00 +29°C° 0 mm 1 mps 745 mmHg 45%
    18:00 +27°C° 0 mm 1 mps 745 mmHg 52%
    19:00 +25°C° 0 mm 1 mps 745 mmHg 58%
    20:00 +23°C° 0 mm 1 mps 745 mmHg 65%
    21:00 +23°C° 0.1 mm 1 mps 746 mmHg 68%
    22:00 +22°C° 0.1 mm 1 mps 746 mmHg 71%
    23:00 +21°C° 0.1 mm 1 mps 746 mmHg 74%

    21 July, Sunday

    Time Temperature Precipitation Wind Pressure Humidity
    00:00 +20°C° 0 mm 1 mps 746 mmHg 76%
    01:00 +20°C° 0 mm 1 mps 746 mmHg 78%
    02:00 +19°C° 0 mm 1 mps 747 mmHg 81%
    03:00 +19°C° 0 mm 1 mps 746 mmHg 82%
    04:00 +18°C° 0 mm 1 mps 746 mmHg 84%
    05:00 +18°C° 0 mm 1 mps 746 mmHg 85%
    06:00 +20°C° 0 mm 1 mps 747 mmHg 80%
    07:00 +22°C° 0 mm 1 mps 747 mmHg 75%
    08:00 +24°C° 0 mm 1 mps 747 mmHg 70%
    09:00 +25°C° 0 mm 1 mps 747 mmHg 65%
    10:00 +27°C° 0 mm 1 mps 747 mmHg 60%
    11:00 +29°C° 0 mm 1 mps 747 mmHg 55%
    12:00 +30°C° 0.1 mm 1 mps 747 mmHg 52%
    13:00 +28°C° 0.1 mm 0 mps 747 mmHg 49%
    14:00 +29°C° 0.1 mm 0 mps 747 mmHg 46%
    15:00 +31°C° 0 mm 1 mps 747 mmHg 46%
    16:00 +31°C° 0 mm 1 mps 747 mmHg 46%
    17:00 +31°C° 0 mm 2 mps 747 mmHg 46%
    18:00 +29°C° 0 mm 1 mps 747 mmHg 54%
    19:00 +27°C° 0 mm 1 mps 747 mmHg 61%
    20:00 +25°C° 0 mm 1 mps 747 mmHg 68%
    21:00 +24°C° 0 mm 1 mps 747 mmHg 70%
    22:00 +23°C° 0 mm 1 mps 747 mmHg 72%
    23:00 +22°C° 0 mm 1 mps 747 mmHg 73%

    22 July, Monday

    Time Temperature Precipitation Wind Pressure Humidity
    00:00 +22°C° 0 mm 1 mps 747 mmHg 75%
    01:00 +21°C° 0 mm 1 mps 747 mmHg 77%
    02:00 +21°C° 0 mm 1 mps 747 mmHg 78%
    03:00 +20°C° 0 mm 1 mps 747 mmHg 80%
    04:00 +18°C° 0 mm 0 mps 747 mmHg 82%
    05:00 +18°C° 0 mm 0 mps 747 mmHg 84%
    06:00 +20°C° 0 mm 0 mps 747 mmHg 78%
    07:00 +21°C° 0 mm 0 mps 747 mmHg 73%
    08:00 +23°C° 0 mm 0 mps 747 mmHg 67%
    09:00 +27°C° 0 mm 1 mps 747 mmHg 62%
    10:00 +29°C° 0 mm 1 mps 747 mmHg 57%
    11:00 +31°C° 0 mm 1 mps 747 mmHg 51%
    12:00 +31°C° 0 mm 1 mps 747 mmHg 48%
    13:00 +32°C° 0 mm 1 mps 746 mmHg 45%
    14:00 +33°C° 0 mm 1 mps 746 mmHg 42%
    15:00 +33°C° 0 mm 1 mps 746 mmHg 42%
    16:00 +33°C° 0 mm 1 mps 746 mmHg 43%
    17:00 +33°C° 0 mm 1 mps 745 mmHg 43%
    18:00 +31°C° 0.3 mm 1 mps 745 mmHg 51%
    19:00 +29°C° 0.3 mm 1 mps 745 mmHg 59%
    20:00 +26°C° 0.3 mm 2 mps 745 mmHg 67%
    21:00 +25°C° 0.9 mm 2 mps 745 mmHg 73%
    22:00 +24°C° 0.9 mm 1 mps 745 mmHg 79%
    23:00 +23°C° 0.9 mm 1 mps 745 mmHg 85%
    Show more